Wind_Speed
17 18 19 19 18 19 19 20 20 21 21 22 22 23 23 24 24 23 23 23 24 24 25 25 24 25 26 26 26 26 26 26 27 27 27 27 27 27 25 25 25 25 25
17 19 21 21 19 19 20 21 20 21 22 22 23 24 24 24 23 24 24 24 24 25 26 26 25 26 27 28 28 28 28 28 28 28 27 27 27 27 26 26 26 25 25
18 19 20 21 21 21 21 21 21 21 22 23 23 24 24 24 24 24 24 24 25 26 27 27 27 27 28 29 29 29 29 29 29 29 28 27 27 27 27 27 27 26 26
18 19 19 20 21 21 21 21 21 22 23 24 24 25 24 25 25 24 24 25 26 27 28 28 28 28 28 28 28 28 29 29 29 29 29 29 29 28 27 27 27 27 26
18 19 18 20 21 21 21 20 21 23 24 25 25 25 26 26 26 25 26 26 27 27 27 27 27 27 27 27 27 28 29 29 29 30 30 30 29 29 28 27 27 27 26
18 19 19 20 21 21 21 23 23 23 24 25 26 26 27 27 26 27 27 27 27 26 26 26 26 27 27 27 27 28 28 28 29 29 30 30 29 29 29 28 27 27 27
18 18 19 20 21 21 21 22 22 24 25 26 26 27 27 27 26 27 27 27 26 26 25 25 25 25 25 25 25 26 26 27 28 28 28 28 28 29 29 29 28 28 28
18 19 20 20 20 20 21 22 22 23 24 25 25 26 26 25 26 26 26 26 26 26 25 24 24 24 23 23 24 24 25 25 26 26 27 28 28 28 28 29 29 28 28
19 20 20 20 21 22 21 22 23 23 24 24 25 26 25 25 24 25 25 26 25 25 24 23 22 23 23 22 23 23 23 24 23 23 25 26 26 26 26 26 27 28 27
19 20 20 20 21 22 22 21 22 22 23 24 24 24 24 24 24 24 23 24 23 23 23 22 21 21 21 21 21 21 21 21 21 21 22 22 23 24 24 25 26 27 27
19 19 20 21 21 21 21 21 21 22 22 22 22 22 23 23 24 23 23 23 21 21 20 20 20 19 19 19 19 19 19 19 19 19 19 20 20 21 22 22 22 23 24
19 19 19 20 20 20 21 21 21 21 20 20 20 21 21 22 21 21 21 20 20 20 19 19 18 18 18 18 17 17 17 17 17 18 18 18 18 18 18 19 20 20 20
18 19 20 20 19 20 21 20 19 19 19 19 19 19 19 20 19 19 19 19 19 19 18 17 17 17 17 17 16 16 15 15 15 15 16 16 17 16 16 16 16 17 17
18 18 18 18 18 18 18 18 17 16 17 17 17 18 18 17 17 17 18 18 17 17 16 17 16 15 15 15 14 13 13 13 12 13 13 14 14 14 14 14 14 15 15
18 18 16 16 17 17 16 16 15 16 16 16 16 15 15 15 15 15 16 16 16 15 14 14 13 13 12 12 12 11 11 11 10 10 10 11 11 10 10 11 11 12 12
18 17 16 16 16 16 16 15 14 14 15 15 14 14 13 13 14 14 15 15 14 13 13 12 11 11 10 9 9 9 9 8 8 9 9 9 8 8 8 8 8 9 10
17 16 16 16 16 15 14 13 13 14 14 13 12 12 12 12 12 13 13 13 12 11 10 10 9 8 7 6 6 6 6 5 5 6 6 5 5 5 5 5 6 6 7
17 16 16 15 14 14 13 12 12 12 12 11 10 11 10 10 11 11 12 11 11 10 9 8 6 6 5 4 3 4 4 4 3 4 3 2 2 2 2 3 4 4 5
16 15 14 13 12 11 11 10 10 11 10 9 9 9 9 9 9 10 10 10 10 9 8 7 6 6 5 4 4 4 4 4 4 3 2 1 1 1 1 2 3 4 4
14 12 11 10 9 9 8 8 8 8 8 7 7 7 7 7 7 8 9 9 9 8 7 7 6 6 5 5 4 4 4 4 3 3 2 1 1 1 1 2 3 3 4
11 10 9 7 7 7 6 6 6 6 6 6 6 6 6 6 6 7 7 8 8 8 8 8 7 6 5 5 5 5 4 4 4 4 3 3 3 3 4 4 4 4 4
8 7 6 6 6 5 5 5 4 4 4 4 5 5 5 6 6 7 7 7 8 8 8 8 7 6 6 5 5 5 5 5 5 5 5 5 5 5 5 5 4 5 4
6 6 6 5 5 5 4 4 4 4 3 4 5 5 5 5 6 6 7 7 8 8 8 8 8 8 8 7 7 6 6 6 6 6 6 6 7 7 7 6 6 6 5
5 5 5 5 5 5 4 4 4 4 4 4 5 5 5 5 5 6 6 7 7 8 8 9 8 8 8 8 8 8 8 7 7 8 8 8 8 7 7 7 6 6 5
6 5 5 5 5 5 5 5 5 5 5 5 5 5 5 5 5 5 6 7 7 7 8 8 8 8 7 7 8 8 8 8 8 8 8 8 8 8 8 7 7 7 6
6 6 6 6 6 6 6 6 5 5 5 5 6 5 5 5 5 6 6 6 6 6 7 7 8 8 8 8 8 8 8 8 7 7 7 7 6 6 6 6 5 5 4
Wind_Direction
284 286 290 288 289 287 287 287 288 288 290 291 291 293 293 293 291 288 287 286 285 285 285 284 280 278 276 275 272 271 269 267 266 265 263 263 263 262 262 263 264 264 264
286 290 292 287 288 286 285 286 288 289 290 291 290 291 292 292 291 290 289 289 287 286 286 284 280 280 279 276 274 272 270 269 267 265 263 263 263 262 262 263 264 264 263
289 290 289 287 287 286 282 282 286 287 289 290 290 292 292 292 290 288 288 288 288 286 285 283 281 280 279 277 275 273 271 270 268 264 262 261 261 261 261 262 263 264 263
290 289 289 291 290 288 283 284 285 286 289 290 291 291 291 292 290 288 288 288 288 286 285 283 282 280 279 277 276 273 272 270 268 265 262 260 259 258 260 262 262 263 262
294 293 289 293 294 290 290 289 289 287 288 290 290 289 290 291 291 290 289 288 288 287 285 284 282 281 279 279 278 276 273 270 267 265 262 260 257 257 258 259 260 261 261
295 298 297 298 298 294 292 289 289 288 289 290 289 289 290 291 291 291 291 291 290 289 286 285 284 282 280 280 280 277 273 270 267 265 263 260 258 258 258 259 259 259 260
296 299 300 302 301 297 296 293 293 291 291 291 291 291 291 290 291 291 292 292 291 289 288 287 287 285 283 282 281 279 275 272 268 264 262 260 260 260 259 259 258 259 260
293 296 299 300 298 298 297 296 295 294 294 293 291 291 290 290 291 292 292 293 291 290 290 289 289 287 285 284 283 280 277 274 271 266 263 261 260 259 259 257 257 258 258
294 295 297 297 297 298 299 298 297 296 294 294 293 291 291 291 293 294 295 294 291 289 287 287 287 286 285 284 284 281 279 276 271 268 265 262 261 260 259 257 257 257 256
292 295 297 299 301 299 298 298 297 296 296 295 293 293 293 295 296 296 296 294 291 289 288 287 287 288 287 285 285 283 280 276 271 269 267 265 263 260 259 257 257 257 256
295 297 299 300 300 298 297 298 297 297 296 296 295 294 296 297 297 297 297 297 295 294 291 289 288 287 288 287 285 284 280 278 273 271 269 266 264 263 260 258 258 258 256
296 296 298 300 302 302 300 298 298 297 295 296 298 300 299 299 299 299 300 301 300 298 294 291 289 289 288 288 286 284 280 279 277 274 270 266 265 262 260 258 257 257 255
299 296 297 299 300 304 302 301 299 296 294 295 297 301 303 302 301 301 301 303 303 303 300 296 295 292 288 287 285 283 281 282 281 275 270 266 262 260 261 259 255 253 252
300 298 298 301 304 305 307 307 302 299 300 301 303 304 305 306 305 305 306 307 307 308 305 302 299 295 290 287 286 284 284 283 281 276 271 267 263 261 259 256 254 251 251
304 304 302 304 306 307 308 307 303 301 303 305 308 309 308 312 313 314 314 312 310 310 309 308 304 300 294 290 288 283 284 282 282 280 275 270 264 258 258 255 250 247 247
305 306 306 305 305 306 307 305 304 304 304 306 309 310 311 315 316 317 318 316 315 315 314 311 307 302 297 294 296 289 286 284 280 283 282 273 264 259 260 253 243 240 241
304 304 301 301 304 304 306 306 306 306 305 307 308 311 313 314 317 319 320 321 323 325 326 326 325 319 312 303 297 296 295 288 284 282 277 265 257 255 251 235 226 226 228
304 304 304 304 305 305 305 305 307 309 308 306 307 309 314 318 320 324 328 329 331 333 338 344 344 346 344 335 324 321 318 315 309 302 288 265 240 223 203 203 212 215 215
307 306 306 305 306 308 309 305 307 310 310 311 312 313 320 325 327 331 337 341 345 348 352 358 0 357 353 351 353 359 359 355 346 336 326 302 211 208 189 198 207 203 197
310 309 308 308 309 311 313 310 312 316 318 322 324 326 331 331 335 344 350 353 358 3 5 4 4 3 2 359 358 7 14 13 10 11 20 42 163 162 163 159 163 162 161
317 317 317 316 318 319 318 316 319 325 331 331 334 333 338 343 350 356 2 3 9 14 13 12 13 14 16 23 27 32 36 38 44 45 59 80 92 99 102 114 131 140 143
327 330 330 326 327 327 327 326 327 329 335 344 347 354 4 9 9 11 13 16 21 23 26 28 29 35 40 41 41 47 53 55 59 70 85 97 103 104 103 106 114 123 125
340 342 343 341 340 341 345 344 353 360 357 354 359 2 12 18 20 22 24 30 31 32 33 38 45 52 56 56 57 63 67 67 74 83 93 96 100 99 99 102 106 106 108
5 8 12 12 10 13 20 20 22 26 23 24 25 28 28 30 28 28 30 30 34 38 40 45 52 54 56 59 63 67 69 77 83 86 90 92 96 98 97 97 100 100 100
29 29 27 26 30 34 39 42 42 40 43 41 41 43 45 43 35 35 37 38 43 44 45 50 52 53 56 61 67 68 73 78 83 87 88 90 92 95 94 92 89 90 90
41 41 37 41 44 44 46 47 45 51 51 52 52 52 48 43 37 37 36 36 42 44 45 51 53 52 56 65 70 73 77 79 81 83 86 89 92 90 88 85 83 83 84
Height
5870 5869 5867 5865 5864 5862 5861 5859 5858 5857 5855 5854 5852 5851 5849 5847 5845 5844 5842 5840 5839 5837 5836 5835 5834 5833 5832 5832 5831 5831 5831 5831 5831 5831 5831 5831 5831 5832 5832 5832 5832 5833 5833
5865 5864 5863 5860 5860 5858 5856 5855 5853 5852 5850 5849 5847 5845 5843 5841 5839 5838 5836 5834 5833 5831 5829 5828 5827 5826 5825 5824 5824 5824 5823 5823 5823 5823 5823 5823 5824 5824 5824 5825 5825 5826 5826
5860 5860 5858 5856 5855 5853 5851 5850 5848 5847 5845 5843 5841 5839 5837 5836 5834 5832 5830 5828 5826 5824 5823 5821 5820 5819 5818 5817 5816 5816 5815 5815 5814 5814 5815 5815 5816 5816 5817 5817 5818 5819 5820
5856 5855 5853 5851 5850 5848 5846 5845 5843 5842 5840 5838 5836 5834 5832 5830 5828 5826 5824 5821 5819 5817 5815 5814 5812 5811 5810 5809 5808 5807 5807 5806 5806 5805 5806 5807 5808 5808 5809 5810 5810 5811 5812
5852 5850 5848 5846 5844 5843 5841 5839 5838 5836 5834 5832 5830 5828 5826 5823 5821 5819 5816 5814 5812 5809 5807 5806 5804 5803 5801 5800 5799 5798 5798 5797 5797 5797 5796 5797 5798 5799 5801 5802 5803 5803 5804
5847 5845 5843 5842 5839 5837 5835 5833 5831 5830 5828 5826 5824 5821 5819 5816 5814 5812 5809 5806 5804 5802 5799 5798 5796 5794 5793 5792 5790 5789 5789 5788 5788 5788 5787 5788 5789 5790 5792 5793 5795 5795 5796
5842 5840 5839 5837 5834 5832 5829 5827 5825 5823 5821 5819 5817 5814 5812 5810 5807 5805 5802 5799 5796 5794 5792 5790 5788 5786 5785 5784 5782 5781 5780 5779 5779 5779 5778 5779 5780 5781 5783 5784 5786 5787 5788
5837 5835 5833 5831 5829 5826 5824 5822 5819 5817 5815 5813 5810 5808 5806 5803 5801 5798 5795 5792 5789 5787 5785 5783 5780 5779 5777 5776 5774 5773 5772 5771 5770 5770 5770 5770 5771 5772 5773 5775 5777 5778 5780
5832 5830 5828 5826 5824 5821 5819 5816 5813 5811 5809 5807 5804 5802 5799 5797 5794 5791 5788 5785 5783 5780 5778 5776 5773 5772 5770 5768 5767 5765 5764 5763 5763 5762 5762 5762 5763 5764 5765 5766 5768 5770 5771
5826 5824 5821 5819 5818 5815 5813 5810 5808 5805 5803 5801 5798 5796 5793 5791 5788 5785 5782 5779 5776 5774 5771 5769 5767 5765 5763 5761 5760 5758 5757 5756 5756 5755 5755 5755 5756 5756 5757 5758 5760 5761 5763
5820 5818 5816 5814 5812 5809 5807 5804 5802 5799 5797 5794 5792 5790 5787 5785 5782 5779 5776 5773 5770 5767 5765 5763 5760 5758 5757 5755 5754 5752 5751 5750 5749 5749 5749 5749 5749 5749 5750 5751 5752 5753 5754
5815 5812 5811 5809 5806 5804 5802 5799 5797 5794 5791 5789 5787 5784 5782 5779 5776 5773 5770 5767 5764 5762 5759 5757 5754 5752 5751 5749 5748 5747 5746 5745 5743 5743 5743 5743 5743 5743 5743 5744 5745 5746 5747
5810 5808 5806 5804 5801 5799 5796 5794 5791 5789 5787 5784 5782 5779 5776 5774 5771 5768 5765 5762 5759 5756 5753 5751 5749 5747 5745 5744 5743 5742 5741 5739 5738 5738 5737 5737 5737 5737 5738 5738 5739 5740 5741
5806 5803 5801 5798 5796 5794 5791 5789 5786 5784 5782 5779 5777 5774 5772 5769 5766 5763 5761 5758 5755 5752 5749 5746 5744 5742 5741 5739 5738 5737 5736 5735 5734 5733 5733 5732 5732 5732 5732 5733 5733 5734 5736
5801 5798 5796 5793 5791 5789 5787 5785 5782 5780 5777 5775 5773 5770 5768 5765 5762 5759 5756 5753 5750 5747 5745 5742 5740 5738 5737 5736 5734 5733 5732 5731 5730 5729 5729 5728 5728 5728 5728 5728 5729 5730 5731
5796 5794 5791 5789 5787 5785 5782 5780 5778 5776 5774 5772 5769 5767 5764 5761 5759 5756 5753 5750 5747 5744 5741 5739 5737 5735 5733 5732 5731 5730 5729 5728 5727 5727 5726 5726 5726 5726 5726 5725 5726 5727 5728
5791 5789 5787 5785 5783 5780 5778 5776 5774 5772 5770 5768 5766 5764 5761 5759 5756 5753 5750 5748 5744 5742 5739 5736 5734 5732 5731 5730 5729 5728 5727 5726 5725 5725 5724 5724 5723 5724 5724 5724 5724 5725 5726
5786 5784 5782 5780 5778 5776 5774 5772 5770 5769 5767 5765 5763 5761 5759 5756 5754 5751 5748 5745 5743 5740 5738 5735 5733 5732 5730 5729 5728 5726 5726 5725 5724 5723 5723 5723 5723 5723 5723 5723 5723 5724 5725
5781 5779 5777 5776 5774 5772 5771 5769 5768 5766 5763 5762 5760 5758 5756 5754 5752 5750 5747 5744 5742 5739 5737 5735 5733 5731 5730 5728 5727 5726 5725 5724 5723 5723 5722 5722 5722 5722 5722 5722 5723 5724 5724
5777 5775 5773 5772 5770 5769 5767 5766 5765 5763 5761 5759 5758 5756 5755 5753 5751 5749 5746 5744 5741 5739 5737 5735 5733 5731 5730 5728 5727 5726 5725 5724 5723 5722 5722 5721 5721 5722 5722 5722 5723 5724 5724
5773 5771 5770 5768 5767 5766 5765 5764 5763 5761 5760 5758 5756 5755 5753 5752 5750 5748 5746 5744 5741 5739 5737 5735 5733 5731 5730 5728 5727 5726 5725 5724 5723 5723 5722 5722 5722 5722 5722 5723 5724 5724 5725
5770 5769 5768 5766 5765 5764 5763 5762 5761 5760 5758 5757 5755 5753 5752 5751 5749 5748 5746 5744 5742 5740 5737 5735 5733 5732 5730 5729 5728 5727 5726 5725 5724 5724 5724 5723 5724 5724 5724 5725 5725 5726 5727
5769 5768 5767 5765 5764 5763 5762 5761 5760 5759 5758 5756 5755 5753 5752 5751 5749 5748 5746 5744 5742 5740 5738 5736 5734 5733 5731 5730 5729 5728 5727 5726 5726 5725 5725 5725 5726 5726 5726 5727 5727 5728 5728
5769 5768 5766 5765 5764 5762 5761 5761 5760 5759 5757 5756 5755 5753 5752 5751 5750 5748 5747 5745 5743 5742 5740 5738 5736 5735 5733 5732 5731 5730 5730 5729 5728 5728 5728 5728 5728 5729 5729 5729 5730 5730 5730
5769 5768 5767 5765 5764 5763 5762 5761 5760 5759 5758 5756 5755 5754 5753 5752 5750 5749 5747 5746 5744 5743 5741 5740 5738 5737 5736 5735 5734 5733 5732 5732 5731 5731 5731 5731 5731 5732 5732 5732 5732 5732 5732
5770 5769 5767 5766 5765 5763 5762 5762 5761 5760 5758 5757 5756 5755 5754 5753 5751 5750 5749 5747 5746 5744 5743 5742 5740 5739 5738 5737 5736 5735 5735 5734 5734 5734 5734 5734 5734 5734 5734 5734 5734 5734 5733